Wetbulb
43.09 44.68 45.18 47.51 46.73 44.55 43.07 40.65 40.02 39.11 38.36 36.82 36.27 35.89 35.02 34.51 34.97 34.36 33.25 32.67 31.32 30.09 30.14 29.00 27.49 28.22 28.95 29.62 30.28 30.65 30.17 32.88 28.00 26.53 28.59 28.51 26.94 26.87 26.68 26.31 25.72 25.13 25.32
41.70 44.28 43.84 41.08 40.84 37.36 34.75 34.71 35.66 34.19 34.60 34.01 34.02 34.02 34.10 34.10 34.50 33.91 32.58 32.01 29.95 28.02 27.43 26.61 26.41 28.40 27.72 28.09 28.83 28.36 28.95 30.08 28.83 24.45 25.71 25.59 25.73 25.13 24.80 23.43 23.18 23.48 23.03
42.32 40.52 38.08 35.69 34.46 33.52 33.75 33.52 33.55 33.46 33.64 34.22 34.12 33.47 32.93 32.04 31.70 31.66 30.91 29.20 28.13 27.48 26.82 26.45 26.38 26.85 26.84 27.91 28.05 27.80 27.34 26.95 27.52 26.08 23.41 24.43 24.34 23.98 22.09 22.37 21.46 21.59 22.13
36.61 35.69 33.96 34.26 34.79 33.52 33.72 33.17 33.28 34.64 33.95 33.88 33.61 32.96 32.25 31.51 30.31 29.01 27.87 26.95 26.20 26.56 27.07 27.25 27.31 27.44 27.67 27.47 26.90 26.32 25.67 24.26 23.98 22.38 21.33 21.23 21.57 21.57 20.55 18.72 17.93 20.46 19.45
33.16 32.73 31.95 32.84 33.24 32.87 32.85 32.46 32.57 32.81 32.02 31.32 30.21 29.33 29.12 28.86 28.23 27.31 26.77 26.09 25.65 25.30 26.06 26.74 27.00 27.35 27.86 27.56 26.03 24.89 24.39 23.00 21.92 20.58 19.36 19.66 19.56 18.31 16.60 17.39 16.40 18.02 18.41
32.04 31.53 32.01 31.85 32.17 31.82 30.77 30.11 29.15 28.80 28.75 28.68 28.31 28.09 27.87 29.16 30.38 29.28 27.22 25.80 25.56 25.17 25.39 26.79 27.44 28.15 27.93 27.54 26.70 25.72 24.60 22.04 20.05 19.43 18.47 17.12 17.29 17.03 17.40 16.29 16.12 14.15 11.95
29.85 30.09 29.56 28.97 28.26 28.51 28.59 28.37 27.83 27.51 28.15 27.73 27.94 28.35 27.98 28.25 29.78 28.90 27.90 26.38 25.76 25.58 25.36 25.02 24.89 26.29 26.37 24.87 25.05 24.89 24.07 23.06 21.95 19.72 17.45 17.29 16.60 17.10 16.89 15.83 14.91 13.38 12.59
26.83 27.11 27.29 27.46 27.28 27.62 27.31 27.23 27.51 27.85 27.73 27.90 28.40 28.44 27.68 27.91 29.26 28.63 27.72 25.87 25.44 24.96 24.81 24.61 23.86 23.42 23.47 22.51 21.96 20.69 20.19 19.90 20.05 20.49 19.73 18.88 19.07 19.44 18.32 16.47 14.55 13.39 12.68
25.85 25.92 26.49 26.78 26.25 26.53 26.27 26.87 27.48 27.71 27.78 27.39 27.99 27.88 27.36 27.09 28.95 28.20 26.21 24.52 23.56 23.30 24.17 24.84 24.34 23.89 24.59 24.35 21.65 19.71 18.66 18.41 20.33 20.21 19.27 19.16 19.20 18.38 16.95 15.10 12.25 10.20 8.29
26.37 26.54 27.14 27.17 26.76 26.56 27.13 27.40 28.50 27.84 27.34 27.17 26.52 27.71 27.74 26.76 28.34 27.74 25.78 24.09 22.21 22.25 23.05 23.20 24.35 24.06 25.29 24.63 21.08 19.04 16.47 17.13 17.35 16.67 16.37 15.22 14.66 13.72 14.21 13.01 11.30 7.51 7.09
27.90 28.12 27.99 28.36 27.79 27.90 27.78 27.89 27.33 26.68 26.43 26.33 25.80 26.67 26.73 26.78 26.96 27.57 26.74 24.37 23.22 22.85 22.13 21.79 23.35 24.37 24.44 21.81 19.45 18.22 17.90 17.67 15.29 12.70 12.32 12.77 13.03 12.85 12.50 12.25 11.11 8.91 6.34
28.10 27.55 27.44 27.91 27.88 27.30 26.30 26.06 26.02 25.53 24.71 24.57 24.48 24.52 25.77 26.53 27.54 27.60 26.86 25.89 25.68 22.62 20.67 20.88 22.14 22.55 21.40 20.03 17.77 18.18 17.95 13.62 12.82 11.91 11.09 11.27 10.92 10.94 11.43 10.86 9.70 8.92 9.17
25.18 24.59 24.97 25.35 25.86 26.16 25.37 24.55 24.28 24.88 23.93 23.17 23.32 23.64 23.98 26.29 27.07 27.68 27.16 26.38 23.98 20.79 20.13 20.69 22.02 19.98 17.91 16.02 15.84 15.53 11.07 12.54 11.23 9.62 9.71 10.27 10.60 10.23 8.74 7.65 7.50 6.42 5.22
23.71 23.27 23.35 22.87 22.48 23.32 24.21 24.47 24.54 23.83 23.63 23.49 23.36 23.03 22.64 22.51 21.96 23.18 23.28 22.27 21.86 20.56 20.66 18.56 17.43 15.77 14.45 12.86 11.24 11.58 11.11 11.14 10.06 9.54 9.21 9.78 9.30 7.14 5.88 6.63 4.95 5.15 3.80
22.90 22.78 22.95 23.47 23.63 22.91 23.24 23.75 23.12 23.63 25.31 24.42 24.40 23.62 21.97 20.02 20.36 21.44 21.07 19.98 18.86 17.49 13.84 13.41 12.04 11.67 11.80 12.12 12.22 10.36 10.79 10.25 8.89 9.12 8.13 7.39 6.78 6.30 5.61 6.63 4.80 3.38 0.88
22.46 22.64 22.90 22.80 22.74 22.91 22.75 23.10 25.81 25.52 25.40 25.11 24.81 23.94 21.73 23.23 23.24 22.51 21.70 20.63 20.05 18.59 12.66 12.18 12.26 12.12 11.88 11.79 11.31 10.80 10.55 7.83 9.09 8.55 7.44 6.37 5.07 4.90 4.83 4.93 4.11 1.81 0.40
23.03 22.52 22.27 22.50 22.70 22.63 23.12 23.13 22.18 24.74 26.19 25.72 24.75 23.83 24.07 24.42 24.60 23.71 22.44 22.49 21.67 18.22 13.16 12.16 12.41 12.12 12.02 10.95 10.00 9.38 8.97 9.47 7.45 6.09 5.90 5.35 5.05 4.55 2.75 2.54 2.50 1.48 0.50
21.87 19.01 23.58 23.41 23.41 23.22 23.32 23.75 24.07 23.03 21.95 22.48 24.73 24.60 25.06 25.24 23.76 22.64 20.72 18.54 14.52 9.98 11.02 11.89 11.61 11.40 10.62 9.79 9.46 8.66 8.37 8.08 7.10 6.19 5.29 4.89 4.03 2.84 1.76 1.62 1.88 -0.14 -0.40
22.86 22.60 22.65 22.70 22.69 21.79 22.48 22.86 23.05 22.61 22.35 21.03 18.86 18.75 15.28 23.82 22.60 21.52 20.42 15.41 13.34 12.65 10.76 9.71 9.86 9.27 9.06 8.76 8.18 7.31 6.42 5.81 5.64 4.64 4.25 3.64 3.21 2.19 0.48 0.07 -0.35 -2.82 -3.85
21.50 20.11 20.77 22.12 20.43 21.17 21.37 21.31 20.92 21.17 20.63 19.39 18.58 19.50 15.99 14.56 17.38 15.76 16.04 11.28 9.68 10.21 10.99 9.17 9.42 8.50 8.10 7.82 7.46 6.65 5.73 5.37 4.77 4.11 3.63 3.41 2.96 1.55 -0.61 -1.32 -1.76 -2.33 -1.80
23.60 22.35 20.92 20.64 20.57 21.08 21.13 21.00 20.91 20.33 19.57 19.10 19.11 18.55 16.46 15.54 16.46 15.81 14.23 11.38 8.96 9.29 9.34 9.37 9.02 7.87 7.41 6.94 5.91 5.33 4.34 4.21 4.04 3.74 3.42 3.08 1.92 -0.59 -0.60 -1.17 -2.30 -2.52 -3.06
23.22 22.64 19.86 19.80 20.42 18.80 19.18 19.76 19.31 18.80 19.02 18.45 18.85 15.72 19.06 16.73 14.41 13.36 12.34 11.49 11.01 9.34 8.81 8.04 7.41 7.47 6.85 5.76 5.40 4.81 3.64 3.21 3.87 4.13 3.40 1.83 0.47 -0.23 -1.37 -2.50 -2.99 -3.21 -3.14
22.83 21.12 19.04 17.99 17.71 16.57 15.46 16.84 16.66 16.89 17.52 17.40 17.09 15.48 12.78 14.73 15.64 14.09 13.12 12.46 10.98 7.50 6.75 5.62 5.27 4.77 5.43 3.87 3.95 3.74 2.80 3.02 4.17 4.39 2.32 1.20 0.56 -0.47 -1.37 -2.54 -2.58 -3.54 -3.72
23.66 23.06 22.36 21.61 18.80 15.86 16.51 16.97 15.65 12.13 14.29 15.39 15.51 13.97 12.55 12.24 11.78 11.31 10.45 10.32 7.95 6.56 5.45 3.83 3.12 3.31 4.03 4.31 5.37 5.40 4.50 3.86 4.32 3.20 2.02 0.60 -0.72 -1.27 -2.00 -2.74 -2.89 -2.76 -2.62
23.25 23.05 22.54 22.22 20.04 16.95 15.95 14.22 14.58 14.37 14.03 13.37 13.31 12.44 11.89 10.79 9.33 8.79 8.28 6.79 4.22 3.93 4.35 4.37 4.74 4.83 4.70 4.10 4.15 4.65 5.37 6.13 5.26 4.98 4.30 2.32 -1.14 -1.63 -1.76 -1.88 -1.79 -1.10 -1.17
21.03 20.33 19.74 18.20 15.81 15.47 14.89 14.58 14.43 13.83 12.39 12.14 11.67 11.01 10.38 9.48 8.17 7.51 6.49 4.60 3.11 3.34 4.16 5.23 5.48 5.17 5.32 5.77 5.97 6.69 6.21 7.96 6.69 6.16 5.22 3.79 2.04 1.20 0.24 -0.39 -0.67 -0.95 -1.19
MSLP
1002.34 1002.13 1001.91 1001.55 1001.17 1002.31 1003.29 1004.37 1005.31 1006.00 1006.99 1007.95 1008.74 1009.53 1009.95 1011.95 1011.00 1013.39 1014.26 1014.84 1016.27 1017.74 1018.46 1019.71 1020.98 1021.26 1021.83 1022.42 1022.81 1023.08 1023.29 1023.19 1024.49 1026.63 1027.31 1028.16 1028.69 1028.96 1029.52 1029.51 1029.45 1029.29 1029.09
1002.12 1001.92 1001.83 1002.04 1002.32 1003.09 1004.29 1005.33 1006.05 1006.96 1007.82 1008.58 1009.51 1010.72 1011.39 1011.54 1013.25 1013.61 1014.79 1015.95 1017.21 1018.68 1019.77 1019.89 1021.42 1021.98 1022.42 1022.90 1023.51 1023.83 1024.00 1024.20 1024.75 1026.00 1027.29 1028.09 1028.56 1029.05 1029.41 1029.42 1029.25 1029.15 1028.97
1001.88 1002.18 1002.40 1002.74 1003.29 1004.16 1005.13 1006.18 1007.07 1007.82 1008.47 1009.29 1010.16 1011.11 1012.31 1013.30 1013.62 1015.38 1015.65 1016.52 1018.19 1019.03 1020.32 1020.82 1021.91 1022.50 1023.05 1023.71 1024.20 1024.77 1025.04 1025.31 1025.81 1026.23 1027.70 1028.37 1028.76 1029.25 1029.31 1029.42 1029.36 1029.06 1028.78
1002.56 1003.02 1003.43 1003.98 1004.38 1005.01 1006.21 1007.04 1007.95 1008.83 1009.61 1010.31 1010.66 1012.09 1012.71 1014.08 1015.02 1016.15 1017.19 1017.99 1019.01 1020.17 1020.97 1021.55 1022.25 1023.15 1023.57 1024.23 1024.88 1025.41 1025.71 1026.09 1027.11 1027.35 1027.73 1028.32 1028.78 1029.23 1029.38 1029.34 1029.07 1028.74 1028.41
1003.62 1004.14 1004.68 1005.40 1005.82 1006.12 1007.40 1007.72 1008.98 1010.24 1010.96 1011.26 1012.10 1013.23 1013.70 1015.64 1016.23 1017.24 1018.28 1018.73 1020.14 1021.16 1021.88 1022.25 1023.23 1024.12 1024.40 1024.88 1025.31 1025.65 1026.26 1026.98 1027.44 1027.59 1027.88 1028.42 1028.86 1029.27 1029.56 1029.59 1029.19 1028.82 1028.33
1004.93 1005.46 1005.95 1006.42 1007.28 1007.76 1008.54 1008.92 1010.07 1011.19 1012.51 1012.61 1014.21 1014.26 1015.04 1016.88 1017.20 1018.54 1019.25 1019.89 1021.24 1022.08 1022.48 1023.22 1024.21 1024.70 1025.13 1025.59 1025.70 1026.53 1026.72 1027.18 1027.52 1027.63 1028.02 1028.50 1029.14 1029.62 1029.82 1029.82 1029.52 1029.12 1028.48
1006.70 1007.17 1007.50 1007.81 1008.97 1009.64 1009.84 1010.48 1011.97 1012.26 1013.42 1014.45 1015.09 1015.47 1016.85 1018.06 1018.27 1019.45 1020.37 1021.37 1022.00 1022.59 1023.06 1023.98 1024.57 1025.26 1025.51 1026.02 1026.51 1026.96 1027.23 1027.82 1027.90 1028.25 1028.49 1028.95 1029.45 1029.74 1029.71 1029.52 1029.58 1029.63 1029.15
1008.57 1008.87 1009.05 1009.16 1010.47 1010.87 1011.37 1012.44 1013.34 1013.34 1015.05 1015.84 1016.59 1017.25 1018.06 1019.01 1019.20 1020.31 1021.45 1022.26 1022.78 1023.37 1023.79 1024.35 1024.85 1025.59 1026.21 1026.44 1026.67 1027.40 1027.94 1028.04 1028.48 1028.36 1028.68 1029.24 1029.35 1029.36 1029.43 1029.45 1029.45 1029.32 1029.30
1010.49 1010.59 1011.07 1011.47 1011.88 1012.20 1012.90 1014.42 1014.75 1014.71 1016.14 1016.89 1018.05 1018.40 1019.21 1020.06 1020.31 1020.76 1021.74 1022.54 1023.53 1023.95 1024.40 1025.00 1025.44 1025.83 1026.29 1026.40 1026.96 1027.94 1028.05 1028.18 1028.54 1028.82 1028.97 1029.04 1029.14 1029.25 1029.43 1029.44 1029.16 1029.18 1028.59
1012.32 1012.49 1012.70 1013.18 1013.34 1014.01 1014.91 1015.40 1015.88 1016.62 1017.40 1018.73 1018.54 1019.43 1020.06 1020.63 1021.16 1021.58 1022.17 1023.09 1023.95 1024.40 1025.18 1025.68 1025.77 1026.08 1026.26 1027.09 1027.75 1027.71 1027.79 1028.16 1028.44 1028.77 1028.76 1028.92 1029.23 1029.45 1029.41 1029.48 1029.47 1029.25 1029.14
1013.74 1013.91 1014.25 1014.66 1014.97 1015.54 1016.17 1016.97 1017.47 1017.88 1018.59 1019.25 1019.58 1020.36 1020.85 1021.46 1021.84 1022.01 1022.66 1023.28 1023.85 1024.57 1025.18 1025.79 1026.18 1026.77 1027.22 1027.50 1027.57 1027.67 1027.77 1028.15 1028.57 1028.69 1028.81 1028.85 1028.91 1028.99 1029.11 1029.16 1029.36 1029.38 1029.21
1015.16 1015.42 1015.84 1016.24 1016.61 1017.05 1017.28 1018.10 1018.55 1018.79 1019.49 1020.29 1020.51 1021.09 1021.86 1022.22 1022.39 1022.82 1023.43 1023.98 1024.31 1024.71 1025.51 1026.36 1026.84 1027.08 1027.12 1027.33 1027.76 1027.70 1027.94 1028.56 1028.59 1028.76 1028.67 1028.51 1028.58 1028.54 1028.54 1028.78 1028.90 1029.03 1028.71
1016.71 1017.00 1017.34 1017.76 1018.21 1018.63 1018.84 1019.21 1019.66 1020.14 1020.68 1021.28 1021.78 1022.34 1022.86 1023.22 1023.64 1023.87 1024.05 1024.32 1024.96 1025.58 1026.20 1026.61 1026.74 1027.10 1027.59 1028.00 1027.94 1028.00 1028.57 1028.51 1028.67 1028.69 1028.46 1028.43 1028.56 1028.54 1028.71 1028.61 1028.57 1028.71 1028.58
1018.10 1018.51 1018.87 1019.12 1019.58 1019.89 1020.08 1020.34 1020.59 1021.09 1021.60 1022.06 1022.43 1022.86 1023.38 1023.85 1024.25 1024.51 1024.84 1025.26 1025.69 1025.96 1026.24 1026.87 1027.35 1027.79 1028.08 1028.22 1028.41 1028.36 1028.48 1028.70 1028.83 1028.51 1028.42 1028.54 1028.61 1028.59 1028.38 1028.14 1027.93 1027.74 1027.56
1019.20 1019.56 1019.84 1020.09 1020.31 1020.61 1021.02 1021.37 1021.62 1022.06 1022.17 1022.31 1022.71 1023.12 1023.51 1024.14 1024.58 1024.96 1025.15 1025.44 1025.81 1026.35 1027.32 1027.55 1027.72 1027.94 1027.96 1027.97 1028.00 1028.01 1028.06 1028.31 1028.54 1028.53 1028.33 1028.20 1028.11 1028.00 1027.74 1027.66 1027.56 1027.33 1027.04
1020.23 1020.49 1020.68 1020.87 1021.17 1021.45 1021.72 1022.03 1022.29 1022.41 1022.57 1022.77 1023.07 1023.21 1023.72 1023.96 1024.29 1024.65 1024.96 1025.37 1025.81 1026.48 1027.13 1027.19 1027.25 1027.43 1027.52 1027.51 1027.48 1027.57 1027.78 1028.07 1028.05 1028.02 1028.04 1027.94 1027.81 1027.39 1027.16 1027.04 1026.86 1026.53 1026.01
1020.70 1021.03 1021.22 1021.35 1021.60 1021.85 1022.11 1022.29 1022.44 1022.91 1022.88 1023.00 1023.26 1023.58 1023.84 1024.00 1024.30 1024.65 1025.05 1025.29 1025.76 1026.56 1026.87 1027.01 1027.08 1027.15 1027.11 1027.19 1027.26 1027.35 1027.30 1027.42 1027.75 1027.81 1027.60 1027.36 1027.10 1026.83 1026.76 1026.42 1026.04 1025.67 1025.10
1021.19 1021.46 1021.40 1021.62 1021.86 1022.14 1022.36 1022.49 1022.62 1022.78 1023.00 1023.40 1023.60 1023.76 1023.92 1024.03 1024.54 1025.04 1025.57 1026.08 1026.64 1027.04 1026.78 1026.73 1026.80 1026.89 1026.94 1026.97 1026.97 1026.91 1026.85 1026.90 1026.97 1027.02 1026.86 1026.68 1026.52 1026.44 1026.09 1025.68 1025.36 1025.04 1024.65
1021.47 1021.70 1021.88 1022.05 1022.21 1022.36 1022.56 1022.73 1022.85 1023.00 1023.18 1023.63 1024.22 1024.55 1024.96 1024.17 1024.61 1024.97 1025.22 1025.88 1026.09 1026.21 1026.30 1026.41 1026.45 1026.51 1026.51 1026.50 1026.49 1026.50 1026.47 1026.39 1026.32 1026.30 1026.14 1025.96 1025.83 1025.74 1025.20 1024.98 1024.55 1024.30 1024.17
1021.62 1021.73 1021.79 1021.99 1022.31 1022.38 1022.47 1022.58 1022.69 1022.88 1023.24 1023.64 1024.00 1024.27 1025.14 1025.54 1024.99 1025.20 1025.51 1026.05 1026.14 1026.02 1025.95 1025.94 1025.84 1025.92 1025.96 1025.91 1025.85 1025.94 1025.91 1025.71 1025.65 1025.61 1025.29 1025.07 1024.99 1024.98 1024.59 1024.29 1023.98 1023.59 1023.13
1021.45 1021.76 1022.00 1022.23 1022.43 1022.63 1022.75 1022.77 1022.86 1023.00 1023.08 1023.24 1023.43 1023.95 1024.50 1024.74 1024.53 1024.58 1024.75 1025.10 1025.32 1025.36 1025.28 1025.26 1025.18 1025.13 1025.21 1025.15 1025.18 1025.14 1025.03 1024.81 1024.63 1024.49 1024.34 1024.22 1024.18 1024.01 1023.80 1023.55 1023.25 1022.90 1022.37
1021.54 1021.71 1022.08 1022.20 1022.22 1022.45 1022.69 1022.74 1022.81 1022.92 1023.06 1023.18 1023.24 1023.70 1023.70 1023.86 1023.94 1024.09 1024.09 1024.15 1024.20 1024.38 1024.52 1024.62 1024.60 1024.49 1024.49 1024.43 1024.35 1024.30 1024.20 1023.97 1023.66 1023.43 1023.26 1023.23 1023.16 1022.94 1022.83 1022.65 1022.24 1021.82 1021.36
1021.21 1021.44 1021.67 1021.78 1021.92 1022.17 1022.48 1022.47 1022.55 1022.64 1022.64 1022.71 1022.83 1023.03 1023.48 1023.40 1023.25 1023.32 1023.31 1023.38 1023.61 1023.86 1024.03 1024.18 1024.03 1023.79 1023.56 1023.63 1023.58 1023.50 1023.33 1022.82 1022.46 1022.34 1022.28 1022.19 1021.99 1021.82 1021.75 1021.43 1021.02 1020.62 1020.20
1020.85 1020.94 1021.21 1021.53 1021.87 1022.09 1022.18 1022.18 1022.19 1022.21 1022.22 1022.20 1022.28 1022.34 1022.38 1022.41 1022.43 1022.41 1022.58 1022.77 1023.00 1023.12 1023.28 1023.38 1023.28 1022.96 1022.68 1022.61 1022.41 1022.24 1022.02 1021.70 1021.50 1021.26 1021.21 1021.01 1020.73 1020.56 1020.45 1020.22 1019.82 1019.31 1018.86
1020.10 1020.17 1020.32 1020.52 1020.80 1021.05 1021.24 1021.30 1021.23 1021.16 1021.12 1021.15 1021.20 1021.38 1021.45 1021.57 1021.65 1021.70 1021.85 1022.12 1022.47 1022.60 1022.45 1022.34 1022.13 1021.88 1021.70 1021.50 1021.27 1020.99 1020.67 1020.33 1020.13 1019.90 1019.73 1019.56 1019.32 1019.17 1018.99 1018.69 1018.22 1017.74 1017.35
1019.99 1020.11 1020.18 1020.32 1020.46 1020.54 1020.54 1020.55 1020.47 1020.44 1020.44 1020.45 1020.54 1020.62 1020.77 1020.98 1021.11 1021.16 1021.25 1021.40 1021.54 1021.58 1021.39 1021.19 1020.98 1020.83 1020.60 1020.34 1020.01 1019.70 1019.40 1019.03 1018.72 1018.38 1018.21 1017.99 1017.60 1017.34 1017.22 1016.84 1016.44 1016.11 1015.57
Wind_Speed
11 11 7 3 10 11 9 10 9 12 12 12 12 13 15 11 15 13 13 15 16 13 12 13 10 8 7 7 6 6 5 5 8 4 5 6 5 2 2 4 4 6 6
11 9 6 7 10 13 12 11 12 13 13 15 14 14 13 17 13 15 16 15 16 15 12 15 11 8 11 9 7 8 7 6 6 10 7 4 3 1 3 5 4 5 6
6 5 8 10 10 13 13 13 13 14 15 15 16 17 16 13 16 12 16 17 15 16 12 12 11 11 11 9 8 7 7 7 6 6 5 2 2 1 4 4 5 7 6
9 9 9 9 13 14 13 15 14 13 13 15 16 14 16 16 16 16 16 17 15 12 12 12 11 11 12 11 9 9 8 8 6 6 5 3 1 1 3 5 6 6 8
12 12 13 11 12 16 14 16 14 14 14 15 18 17 18 15 12 17 16 16 15 14 13 13 13 12 14 11 7 8 8 6 5 5 4 2 0 2 4 4 7 8 10
14 14 13 15 14 15 16 19 18 19 15 18 16 18 19 12 28 24 16 15 14 13 14 15 14 14 17 18 17 12 8 6 6 3 3 2 0 2 3 5 7 8 7
15 14 15 16 17 15 18 20 16 20 18 18 18 19 17 15 26 24 22 12 12 12 13 12 11 8 12 12 14 13 12 10 7 3 3 1 1 3 5 8 9 9 10
16 16 16 18 16 17 19 19 17 19 17 16 17 17 16 14 25 25 21 13 12 13 12 11 12 11 9 9 8 7 6 6 4 3 3 2 2 5 7 7 9 10 10
16 16 16 16 18 17 20 17 15 19 16 16 13 16 15 14 24 24 17 12 12 12 11 10 10 10 11 11 7 6 5 4 5 5 2 3 6 9 7 6 6 8 9
16 16 16 17 18 18 16 16 16 15 15 11 14 13 15 14 20 20 15 9 11 9 9 9 10 8 10 9 6 4 3 3 3 2 3 5 5 6 8 5 5 7 7
14 16 16 15 17 16 15 13 13 14 14 13 13 11 12 11 13 18 16 9 9 8 8 6 5 9 11 9 6 3 3 4 2 2 3 4 4 5 4 4 5 6 8
14 14 14 13 11 11 15 12 12 12 13 11 12 10 8 9 11 12 12 12 12 8 8 6 6 9 8 7 5 4 5 4 1 3 4 5 5 5 5 5 6 8 9
14 14 13 12 11 10 10 10 9 9 9 8 8 8 8 6 7 13 12 12 11 8 6 8 11 9 7 4 3 4 3 0 2 3 4 5 5 6 8 8 8 10 12
13 11 10 11 10 8 7 6 7 7 7 7 8 9 7 6 6 6 6 7 11 9 11 6 6 5 4 3 2 2 1 2 3 4 5 5 6 6 7 6 7 7 9
8 7 8 7 7 7 7 5 5 4 4 7 7 7 7 6 5 8 9 7 6 7 6 3 3 4 3 3 3 2 2 2 3 4 5 6 7 7 8 6 7 7 9
8 6 5 6 6 6 7 7 10 8 9 10 11 9 4 10 15 14 12 11 11 13 2 3 3 3 3 3 3 3 3 4 4 5 6 6 7 7 8 7 7 8 9
7 6 5 5 5 6 6 6 8 7 10 11 10 10 11 12 12 10 9 10 11 7 2 2 3 3 3 3 3 4 5 4 4 6 6 7 7 8 8 8 7 8 9
5 4 5 4 5 5 5 5 5 7 7 6 7 7 10 11 9 9 8 6 4 3 3 3 3 3 4 4 4 5 6 6 6 6 7 7 8 8 8 8 8 9 9
5 3 3 3 3 4 4 4 4 5 5 5 3 1 2 9 10 10 7 5 5 5 4 4 5 5 5 5 5 6 7 7 7 7 8 7 8 8 9 9 9 10 11
4 5 4 4 4 4 5 5 5 5 5 5 6 6 3 2 5 5 5 4 5 5 5 6 5 5 5 5 5 6 7 7 7 7 8 8 8 8 9 9 9 10 10
4 4 4 3 4 4 4 5 4 5 6 6 7 6 9 7 7 7 7 7 7 7 7 6 5 6 6 6 6 6 7 8 8 8 8 8 8 8 8 9 9 9 9
4 3 4 4 3 4 5 4 5 6 6 6 6 6 14 8 7 7 8 8 8 7 6 6 6 6 6 6 6 7 8 9 8 8 8 8 8 8 8 9 9 9 9
4 4 4 5 5 4 4 5 6 6 7 7 6 5 6 8 8 9 9 8 7 6 6 6 7 7 6 7 7 8 8 9 8 8 8 8 8 9 8 9 9 9 9
6 6 6 5 4 4 5 6 6 7 7 7 7 8 8 8 9 9 8 7 6 6 6 6 7 9 8 8 7 8 9 9 8 9 12 10 9 9 9 9 10 12 11
7 6 6 6 6 6 7 8 8 8 8 8 8 8 8 7 8 8 7 6 6 6 8 7 7 10 13 14 14 14 14 17 14 14 9 12 13 14 12 10 11 11 13
6 6 6 5 6 7 7 7 7 7 8 7 7 7 7 7 7 7 6 6 6 7 8 7 8 13 14 13 15 16 17 18 16 17 13 12 11 11 10 13 16 11 14
Wind_Direction
262 260 259 227 119 112 118 113 118 116 116 112 113 113 110 103 111 108 104 107 103 103 105 105 105 106 106 100 93 86 80 91 122 116 126 144 154 154 262 311 315 321 321
253 259 149 120 119 107 105 104 109 112 110 111 108 102 104 112 107 112 113 112 108 102 105 110 109 112 99 96 91 90 87 74 121 135 138 143 161 135 318 313 320 314 321
238 126 115 105 105 103 107 104 105 108 111 107 109 110 102 90 92 92 104 104 106 109 119 112 110 106 101 101 96 93 86 78 76 121 125 124 108 15 323 321 324 312 309
83 87 86 100 111 106 108 104 103 105 111 112 103 108 105 101 101 101 98 101 107 105 104 100 100 107 112 108 103 102 97 94 98 106 104 119 163 28 319 315 315 321 317
81 83 82 85 98 98 101 96 98 96 93 93 98 94 90 95 97 103 111 106 104 100 98 96 94 96 97 102 113 102 108 115 116 119 121 127 126 323 323 323 315 322 313
77 81 86 90 82 93 97 91 94 90 91 90 91 93 94 100 108 111 106 104 106 107 105 101 105 106 105 102 98 101 104 118 121 122 118 122 135 322 326 325 318 326 322
71 75 80 86 82 89 90 92 93 94 90 90 91 90 95 107 110 107 108 105 110 110 112 118 111 105 109 111 108 103 95 92 76 98 103 76 327 349 327 320 312 297 286
69 73 76 81 93 89 91 89 91 91 95 95 95 97 102 106 112 112 107 107 106 113 116 118 119 126 133 131 119 121 119 86 86 99 102 112 330 320 310 303 298 298 289
69 72 76 84 87 88 88 97 97 94 93 88 98 101 106 116 120 118 116 112 112 109 109 119 129 132 139 134 133 135 117 100 89 84 74 313 303 305 306 301 291 301 304
77 80 82 83 83 86 89 89 90 95 96 107 104 107 112 116 121 120 115 114 119 116 116 118 123 130 130 142 141 129 123 132 165 213 280 307 315 306 306 278 280 280 292
84 86 86 89 92 94 92 92 101 100 103 101 101 100 103 113 124 126 131 132 135 137 131 121 123 135 138 133 118 143 172 155 174 272 285 291 295 290 284 275 264 261 264
81 82 82 84 87 94 101 102 100 105 105 107 102 95 92 98 110 126 136 140 138 131 136 140 149 140 127 138 168 168 135 155 235 292 298 300 300 299 300 288 278 267 264
68 66 67 69 71 78 90 98 99 96 98 101 105 109 107 110 127 130 129 126 120 116 132 149 142 146 150 149 165 160 152 266 293 292 297 295 295 295 296 286 276 274 275
79 79 80 82 82 79 82 89 100 110 123 132 137 138 133 126 117 113 117 123 125 127 133 130 156 159 181 162 199 169 248 263 282 283 282 286 291 290 282 278 276 279 279
89 90 94 94 92 93 75 88 99 83 135 149 150 146 146 150 159 158 157 161 164 159 133 139 173 198 209 220 224 231 262 260 262 256 263 273 275 276 275 274 270 270 264
92 89 92 100 94 97 103 95 83 113 120 125 137 148 154 165 163 166 169 166 165 152 159 185 193 215 241 269 294 302 285 260 258 264 268 266 269 275 277 273 265 261 270
116 122 115 120 125 130 133 135 128 109 122 132 140 150 160 163 171 164 168 169 175 173 226 193 220 226 256 267 272 274 277 275 286 268 270 271 273 272 271 271 271 268 270
118 113 144 149 148 149 154 155 153 157 154 154 155 159 174 172 170 179 178 165 177 213 222 223 238 241 249 258 265 271 279 280 273 271 269 271 270 272 277 276 275 275 277
141 145 139 139 155 153 159 166 173 176 173 163 148 163 351 189 196 204 202 214 239 234 217 226 227 235 243 252 259 263 265 268 269 274 273 270 270 268 270 269 269 266 269
164 162 175 170 170 181 185 187 189 191 188 191 201 205 171 163 208 206 215 230 239 248 243 237 236 238 249 254 263 267 269 268 267 261 261 263 265 261 263 266 266 272 270
176 169 183 186 198 206 207 214 213 209 211 212 219 205 198 208 222 223 220 220 228 236 241 242 241 243 249 254 255 261 265 268 263 259 260 260 260 261 261 263 267 268 267
186 182 192 213 201 209 223 226 220 222 228 232 229 219 221 212 231 237 232 232 230 230 239 247 254 251 250 252 258 263 262 259 260 259 261 253 255 258 257 262 265 266 267
199 198 202 211 217 221 227 228 229 232 239 242 245 235 219 237 236 238 239 239 235 234 231 234 247 254 252 247 247 246 252 256 258 260 259 256 252 251 253 257 259 258 258
212 214 222 229 219 227 237 241 237 238 245 242 238 233 232 232 236 238 240 242 242 244 240 238 242 250 265 258 253 247 245 250 252 252 252 250 251 255 251 252 253 256 261
219 224 225 227 221 222 230 232 236 235 235 234 238 238 242 241 244 244 245 241 241 246 251 246 246 252 256 255 254 256 257 260 257 257 253 243 246 251 251 251 255 257 258
229 237 242 238 238 236 237 242 242 241 242 244 244 245 247 247 248 247 243 238 241 246 250 253 255 259 264 266 265 263 263 263 259 253 246 245 246 244 242 246 252 254 259